Radiation Dose at Monitoring Post of Fukushima Daini Nuclear Power Station
Date,Time,MP-1(microSv/h),MP-2(microSv/h),MP-3(microSv/h),MP-4(microSv/h),MP-5(microSv/h),MP-6(microSv/h),MP-7(microSv/h),Wind Direction,Wind Velocity(m/s),Rain
2017/04/12,00:00,0.364,0.224,0.374,0.346,0.323,0.183,0.156,north-northwest,12.0,Yes
2017/04/12,00:10,0.365,0.223,0.373,0.345,0.325,0.184,0.157,north-northwest,10.5,Yes
2017/04/12,00:20,0.364,0.224,0.375,0.345,0.324,0.183,0.157,north-northwest,10.8,No
2017/04/12,00:30,0.365,0.223,0.374,0.347,0.323,0.183,0.156,north-northwest,11.2,No
2017/04/12,00:40,0.366,0.223,0.373,0.345,0.323,0.182,0.156,north-northwest,11.3,No
2017/04/12,00:50,0.366,0.223,0.375,0.345,0.323,0.183,0.155,north-northwest,10.1,Yes
2017/04/12,01:00,0.366,0.223,0.374,0.346,0.321,0.183,0.155,north-northwest,10.4,Yes
2017/04/12,01:10,0.367,0.223,0.374,0.345,0.323,0.182,0.154,north-northwest,9.1,Yes
2017/04/12,01:20,0.366,0.223,0.375,0.347,0.323,0.183,0.155,north-northwest,8.5,Yes
2017/04/12,01:30,0.366,0.223,0.375,0.347,0.321,0.183,0.155,north-northwest,7.1,No
2017/04/12,01:40,0.367,0.224,0.373,0.346,0.324,0.183,0.155,north-northwest,6.5,No
2017/04/12,01:50,0.365,0.222,0.377,0.348,0.322,0.182,0.155,north,6.9,No
2017/04/12,02:00,0.366,0.222,0.375,0.345,0.322,0.182,0.155,north-northwest,6.2,No
2017/04/12,02:10,0.364,0.222,0.372,0.346,0.323,0.182,0.155,north-northwest,5.1,No
2017/04/12,02:20,0.365,0.221,0.375,0.347,0.322,0.181,0.153,north-northwest,3.5,No
2017/04/12,02:30,0.366,0.221,0.372,0.345,0.323,0.182,0.155,northwest,2.6,No
2017/04/12,02:40,0.364,0.222,0.375,0.346,0.322,0.182,0.155,west,1.3,No
2017/04/12,02:50,0.365,0.222,0.376,0.345,0.321,0.181,0.154,north,0.7,No
2017/04/12,03:00,0.366,0.222,0.374,0.344,0.322,0.182,0.154,north-northeast,1.8,No
2017/04/12,03:10,0.365,0.222,0.373,0.346,0.323,0.181,0.155,northeast,1.9,No
2017/04/12,03:20,0.367,0.221,0.375,0.346,0.321,0.182,0.156,northeast,1.9,No
2017/04/12,03:30,0.365,0.222,0.373,0.345,0.323,0.183,0.154,north-northeast,1.8,No
2017/04/12,03:40,0.366,0.222,0.375,0.347,0.322,0.183,0.154,north-northwest,5.6,No
2017/04/12,03:50,0.365,0.222,0.374,0.345,0.322,0.183,0.154,north,8.9,No
2017/04/12,04:00,0.366,0.222,0.375,0.347,0.324,0.182,0.154,north,8.1,No
2017/04/12,04:10,0.367,0.221,0.376,0.347,0.322,0.182,0.154,north-northwest,7.3,No
2017/04/12,04:20,0.367,0.221,0.377,0.347,0.324,0.182,0.154,north,5.2,No
2017/04/12,04:30,0.366,0.222,0.374,0.348,0.323,0.183,0.154,north-northwest,7.1,No
2017/04/12,04:40,0.368,0.223,0.376,0.347,0.322,0.183,0.156,north-northwest,6.1,No
2017/04/12,04:50,0.366,0.222,0.377,0.347,0.325,0.183,0.154,north-northwest,8.4,No
2017/04/12,05:00,0.367,0.223,0.374,0.349,0.324,0.182,0.155,northwest,8.0,No
2017/04/12,05:10,0.369,0.223,0.376,0.347,0.324,0.183,0.154,north-northwest,8.1,No
2017/04/12,05:20,0.367,0.222,0.376,0.347,0.325,0.183,0.156,northwest,6.7,No
2017/04/12,05:30,0.367,0.222,0.375,0.349,0.323,0.183,0.155,northwest,6.9,No
2017/04/12,05:40,0.367,0.222,0.376,0.348,0.324,0.183,0.154,northwest,7.0,No
2017/04/12,05:50,0.366,0.223,0.376,0.348,0.324,0.183,0.154,north-northwest,8.2,No
2017/04/12,06:00,0.368,0.222,0.376,0.347,0.322,0.184,0.155,north-northwest,8.4,No
2017/04/12,06:10,0.368,0.222,0.377,0.348,0.324,0.183,0.156,north-northwest,7.1,No
2017/04/12,06:20,0.367,0.223,0.377,0.350,0.323,0.183,0.155,northwest,5.9,No
2017/04/12,06:30,0.370,0.222,0.378,0.347,0.323,0.184,0.156,northwest,5.2,No
2017/04/12,06:40,0.367,0.222,0.377,0.347,0.324,0.184,0.155,northwest,7.2,No
2017/04/12,06:50,0.368,0.223,0.376,0.349,0.322,0.183,0.155,northwest,9.1,No
2017/04/12,07:00,0.369,0.222,0.378,0.347,0.322,0.183,0.153,northwest,8.7,No
2017/04/12,07:10,0.367,0.222,0.377,0.348,0.324,0.184,0.155,northwest,7.8,No
2017/04/12,07:20,0.370,0.224,0.377,0.348,0.322,0.183,0.156,north-northwest,8.1,No
2017/04/12,07:30,0.369,0.223,0.378,0.348,0.325,0.183,0.154,north-northwest,6.4,No
2017/04/12,07:40,0.369,0.223,0.376,0.349,0.321,0.184,0.154,north-northwest,7.6,No
2017/04/12,07:50,0.368,0.223,0.378,0.347,0.324,0.183,0.154,north-northwest,5.7,No
2017/04/12,08:00,0.368,0.222,0.379,0.348,0.323,0.184,0.155,north-northwest,6.3,No
2017/04/12,08:10,0.371,0.224,0.379,0.348,0.324,0.184,0.154,north-northwest,6.1,No
2017/04/12,08:20,0.368,0.223,0.380,0.350,0.322,0.185,0.156,north,7.5,No
2017/04/12,08:30,0.371,0.224,0.377,0.346,0.321,0.184,0.155,north,6.4,No
2017/04/12,08:40,0.368,0.222,0.378,0.349,0.323,0.185,0.155,north,7.3,No
2017/04/12,08:50,0.369,0.223,0.377,0.346,0.323,0.185,0.155,north,7.2,No
2017/04/12,09:00,0.369,0.224,0.378,0.349,0.326,0.185,0.155,north,7.9,No
2017/04/12,09:10,0.371,0.222,0.378,0.347,0.322,0.185,0.155,north,8.6,No
2017/04/12,09:20,0.368,0.223,0.378,0.350,0.324,0.184,0.155,north,7.2,No
2017/04/12,09:30,0.371,0.223,0.380,0.349,0.323,0.184,0.155,north-northwest,6.3,No
2017/04/12,09:40,0.370,0.223,0.378,0.349,0.325,0.185,0.156,north-northwest,5.0,No
2017/04/12,09:50,0.370,0.225,0.381,0.349,0.324,0.185,0.155,north-northwest,5.1,No
2017/04/12,10:00,0.370,0.223,0.378,0.351,0.325,0.185,0.157,north-northwest,5.6,No
2017/04/12,10:10,0.371,0.224,0.379,0.346,0.322,0.185,0.156,north-northwest,5.3,No
2017/04/12,10:20,0.368,0.223,0.377,0.351,0.324,0.186,0.156,northwest,5.0,No
2017/04/12,10:30,0.371,0.225,0.380,0.347,0.323,0.184,0.156,west,6.7,No
2017/04/12,10:40,0.368,0.223,0.378,0.349,0.325,0.186,0.155,west-northwest,3.8,No
2017/04/12,10:50,0.372,0.224,0.381,0.348,0.322,0.184,0.156,north-northwest,2.8,No
2017/04/12,11:00,0.367,0.222,0.377,0.350,0.325,0.186,0.155,northwest,3.7,No
2017/04/12,11:10,0.371,0.224,0.379,0.351,0.323,0.184,0.157,north-northwest,3.1,No
2017/04/12,11:20,0.369,0.224,0.378,0.350,0.324,0.186,0.156,north-northeast,2.8,No
2017/04/12,11:30,0.372,0.224,0.380,0.351,0.325,0.185,0.156,north,5.3,No
2017/04/12,11:40,0.370,0.225,0.380,0.350,0.325,0.186,0.157,north,3.9,No
2017/04/12,11:50,0.372,0.223,0.378,0.350,0.325,0.185,0.156,north,1.9,No
2017/04/12,12:00,0.369,0.224,0.380,0.350,0.324,0.186,0.157,northeast,1.8,No
2017/04/12,12:10,0.371,0.225,0.378,0.351,0.325,0.185,0.157,north,1.9,No
2017/04/12,12:20,0.369,0.225,0.380,0.349,0.323,0.185,0.157,north-northeast,3.6,No
2017/04/12,12:30,0.372,0.224,0.378,0.351,0.324,0.185,0.157,north-northeast,2.3,No
2017/04/12,12:40,0.371,0.225,0.380,0.349,0.324,0.186,0.157,north,2.5,No
2017/04/12,12:50,0.373,0.225,0.378,0.352,0.328,0.186,0.156,north,3.1,No
2017/04/12,13:00,0.370,0.224,0.381,0.349,0.323,0.187,0.157,north,2.2,No
2017/04/12,13:10,0.371,0.223,0.378,0.351,0.326,0.186,0.156,west-northwest,4.5,No
2017/04/12,13:20,0.370,0.224,0.381,0.350,0.324,0.185,0.157,west-northwest,7.1,No
2017/04/12,13:30,0.371,0.225,0.380,0.351,0.321,0.186,0.157,west-northwest,10.0,No
2017/04/12,13:40,0.368,0.224,0.377,0.350,0.325,0.186,0.156,west,9.5,No
2017/04/12,13:50,0.374,0.223,0.379,0.348,0.323,0.186,0.157,west-northwest,10.2,No
2017/04/12,14:00,0.370,0.223,0.377,0.351,0.324,0.187,0.156,west-northwest,7.8,No
2017/04/12,14:10,0.374,0.224,0.383,0.349,0.326,0.186,0.157,west-northwest,6.2,No
2017/04/12,14:20,0.370,0.225,0.379,0.351,0.323,0.186,0.157,west-northwest,7.3,No
2017/04/12,14:30,0.373,0.226,0.382,0.352,0.328,0.186,0.156,west-northwest,8.7,No
2017/04/12,14:40,0.370,0.224,0.380,0.351,0.323,0.188,0.157,west-northwest,6.8,No
2017/04/12,14:50,0.373,0.227,0.383,0.353,0.326,0.186,0.157,northwest,9.5,No
2017/04/12,15:00,0.370,0.225,0.380,0.352,0.326,0.187,0.157,west-northwest,6.8,No
2017/04/12,15:10,0.373,0.226,0.384,0.351,0.326,0.187,0.157,west-northwest,6.4,No
2017/04/12,15:20,0.370,0.227,0.381,0.352,0.325,0.187,0.157,west-northwest,6.0,No
2017/04/12,15:30,0.373,0.225,0.383,0.353,0.327,0.186,0.157,west-northwest,9.5,No
2017/04/12,15:40,0.371,0.226,0.382,0.353,0.326,0.187,0.157,west-northwest,8.9,No
2017/04/12,15:50,0.375,0.225,0.383,0.353,0.325,0.187,0.157,west-northwest,9.5,No
2017/04/12,16:00,0.370,0.226,0.383,0.355,0.325,0.187,0.158,west-northwest,7.1,No
2017/04/12,16:10,0.373,0.226,0.384,0.352,0.326,0.186,0.158,west-northwest,7.3,No
2017/04/12,16:20,0.373,0.226,0.382,0.355,0.325,0.187,0.159,west-northwest,7.3,No
2017/04/12,16:30,0.374,0.226,0.382,0.354,0.327,0.187,0.159,west-northwest,8.0,No
2017/04/12,16:40,0.373,0.225,0.383,0.353,0.327,0.188,0.158,northwest,7.3,No
2017/04/12,16:50,0.373,0.225,0.381,0.355,0.325,0.187,0.158,northwest,4.9,No
2017/04/12,17:00,0.375,0.225,0.382,0.354,0.326,0.187,0.157,northwest,6.4,No
2017/04/12,17:10,0.373,0.225,0.383,0.355,0.328,0.187,0.158,west-northwest,3.8,No
2017/04/12,17:20,0.374,0.226,0.384,0.355,0.326,0.187,0.159,west,3.4,No
2017/04/12,17:30,0.375,0.228,0.384,0.353,0.328,0.187,0.158,west-northwest,3.7,No
2017/04/12,17:40,0.373,0.226,0.385,0.356,0.328,0.187,0.159,northwest,3.8,No
2017/04/12,17:50,0.375,0.228,0.383,0.355,0.327,0.187,0.157,northwest,7.2,No
2017/04/12,18:00,0.375,0.226,0.383,0.354,0.327,0.187,0.159,northwest,7.6,No
2017/04/12,18:10,0.374,0.227,0.384,0.354,0.328,0.187,0.158,northwest,8.1,No
2017/04/12,18:20,0.375,0.227,0.385,0.355,0.325,0.188,0.159,northwest,8.0,No
2017/04/12,18:30,0.375,0.227,0.384,0.352,0.327,0.189,0.159,northwest,4.8,No
2017/04/12,18:40,0.373,0.226,0.385,0.355,0.329,0.187,0.159,northwest,6.1,No
2017/04/12,18:50,0.375,0.227,0.385,0.354,0.326,0.188,0.158,northwest,7.8,No
2017/04/12,19:00,0.374,0.227,0.383,0.355,0.327,0.188,0.157,northwest,6.0,No
2017/04/12,19:10,0.374,0.227,0.385,0.356,0.329,0.188,0.159,northwest,6.1,No
2017/04/12,19:20,0.375,0.226,0.384,0.355,0.329,0.187,0.158,northwest,7.5,No
2017/04/12,19:30,0.374,0.228,0.384,0.354,0.327,0.188,0.159,north-northwest,4.2,No
2017/04/12,19:40,0.374,0.227,0.383,0.354,0.328,0.187,0.159,north-northwest,1.9,No
2017/04/12,19:50,0.374,0.227,0.384,0.356,0.325,0.188,0.158,north-northwest,7.5,No
2017/04/12,20:00,0.375,0.226,0.385,0.354,0.326,0.188,0.159,northwest,6.0,No
2017/04/12,20:10,0.375,0.227,0.383,0.355,0.328,0.188,0.158,northwest,4.0,No
2017/04/12,20:20,0.374,0.228,0.384,0.354,0.328,0.188,0.160,north-northwest,3.7,No
2017/04/12,20:30,0.375,0.227,0.386,0.356,0.326,0.187,0.159,north,5.9,No
2017/04/12,20:40,0.374,0.228,0.383,0.357,0.327,0.188,0.159,north,5.6,No
2017/04/12,20:50,0.375,0.227,0.383,0.354,0.328,0.188,0.159,north,3.6,No
2017/04/12,21:00,0.376,0.228,0.385,0.356,0.325,0.188,0.158,north,3.5,No
2017/04/12,21:10,0.374,0.227,0.385,0.355,0.328,0.188,0.159,north,5.1,No
2017/04/12,21:20,0.374,0.227,0.383,0.355,0.328,0.188,0.158,north,5.8,No
2017/04/12,21:30,0.374,0.227,0.384,0.354,0.327,0.186,0.159,north,3.8,No
2017/04/12,21:40,0.375,0.227,0.385,0.355,0.327,0.188,0.159,north,5.1,No
2017/04/12,21:50,0.375,0.228,0.386,0.356,0.328,0.188,0.159,north,7.0,No
2017/04/12,22:00,0.375,0.228,0.386,0.356,0.326,0.188,0.158,north,9.2,No
2017/04/12,22:10,0.376,0.227,0.386,0.356,0.326,0.188,0.159,north-northeast,8.9,No
2017/04/12,22:20,0.374,0.228,0.385,0.354,0.328,0.188,0.159,north-northeast,8.1,No
2017/04/12,22:30,0.374,0.228,0.384,0.356,0.328,0.187,0.158,north,7.6,No
2017/04/12,22:40,0.375,0.228,0.385,0.356,0.327,0.188,0.159,north-northeast,7.9,No
2017/04/12,22:50,0.377,0.228,0.386,0.355,0.327,0.189,0.159,north,7.3,No
2017/04/12,23:00,0.375,0.228,0.386,0.355,0.328,0.189,0.159,north,6.7,No
2017/04/12,23:10,0.374,0.229,0.385,0.355,0.327,0.187,0.159,north,6.7,No
2017/04/12,23:20,0.376,0.228,0.385,0.354,0.327,0.188,0.158,north,7.5,No
2017/04/12,23:30,0.375,0.229,0.386,0.355,0.326,0.187,0.159,north,7.5,No
2017/04/12,23:40,0.374,0.228,0.385,0.357,0.328,0.187,0.159,north,6.7,No
2017/04/12,23:50,0.375,0.227,0.386,0.355,0.326,0.189,0.159,north,5.6,No
